GW4820 Weather Reports


Display with metric or nautical units.
time (UTC)temp
F
wind
direction
speed
MPH
gust
MPH
rain 1hr
in
rain 24hr
in
rain mn
in
humidity
%
barometer
mb
20260504194344 76 233 3.0 7.0 0.00 0.00 0.00 34 1015.4
20260504193841 77 210 1.0 6.0 0.00 0.00 0.00 34 1015.6
20260504193338 77 288 2.0 4.0 0.00 0.00 0.00 35 1015.4
20260504192837 76 227 1.0 3.0 0.00 0.00 0.00 35 1015.7
20260504192334 76 294 2.0 3.0 0.00 0.00 0.00 35 1015.8
20260504191832 77 229 2.0 3.0 0.00 0.00 0.00 34 1015.6
20260504191330 75 177 0.0 1.0 0.00 0.00 0.00 37 1015.9
20260504190825 75 231 1.0 2.0 0.00 0.00 0.00 35 1015.8
20260504190321 76 174 1.0 3.0 0.00 0.00 0.00 34 1015.9
20260504185818 76 83 2.0 3.0 0.00 0.00 0.00 35 1015.9
20260504185315 76 93 0.0 1.0 0.00 0.00 0.00 35 1016.0
20260504184811 75 240 1.0 3.0 0.00 0.00 0.00 34 1016.3
20260504184307 76 188 1.0 3.0 0.00 0.00 0.00 34 1016.1
20260504183803 76 187 1.0 3.0 0.00 0.00 0.00 35 1016.2
20260504183300 76 195 3.0 4.0 0.00 0.00 0.00 35 1016.3
20260504182758 76 321 0.0 1.0 0.00 0.00 0.00 35 1016.4
20260504182255 77 128 2.0 3.0 0.00 0.00 0.00 33 1016.5
20260504181753 75 193 2.0 3.0 0.00 0.00 0.00 36 1016.4
20260504181250 75 288 2.0 3.0 0.00 0.00 0.00 35 1016.5
20260504180749 76 220 2.0 3.0 0.00 0.00 0.00 34 1016.5
20260504180247 75 166 2.0 3.0 0.00 0.00 0.00 35 1016.5
20260504175744 76 252 1.0 2.0 0.00 0.00 0.00 34 1016.3
20260504175241 76 158 2.0 3.0 0.00 0.00 0.00 36 1016.4
20260504174739 76 181 2.0 4.0 0.00 0.00 0.00 35 1016.6
20260504174237 75 261 0.0 1.0 0.00 0.00 0.00 35 1016.3
20260504173733 75 149 2.0 4.0 0.00 0.00 0.00 35 1016.6
20260504173230 75 184 0.0 4.0 0.00 0.00 0.00 35 1016.6
20260504172726 76 181 1.0 3.0 0.00 0.00 0.00 34 1016.6
20260504172223 74 252 2.0 2.0 0.00 0.00 0.00 36 1016.9
20260504171720 74 131 3.0 6.0 0.00 0.00 0.00 36 1016.6
20260504171217 75 187 2.0 6.0 0.00 0.00 0.00 35 1017.0
20260504170713 75 120 3.0 4.0 0.00 0.00 0.00 35 1017.2
20260504170211 75 199 1.0 3.0 0.00 0.00 0.00 34 1017.3
20260504160129 73 223 0.0 2.0 0.00 0.00 0.00 33 1018.4
20260504151056 70 273 2.0 4.0 0.00 0.00 0.00 38 1018.7
20260504150554 70 208 2.0 3.0 0.00 0.00 0.00 40 1018.7
20260504141020 63 180 0.0 2.0 0.00 0.00 0.00 58 1018.3
20260504140516 64 211 1.0 2.0 0.00 0.00 0.00 55 1018.4
20260504130441 55 176 1.0 2.0 0.00 0.00 0.00 71 1018.2
20260504110328 41 199 0.0 0.0 0.00 0.00 0.00 94 1018.0
20260504100245 41 198 0.0 0.0 0.00 0.00 0.00 93 1017.7
20260504081639 44 323 0.0 0.0 0.00 0.00 0.00 88 1017.7
20260504081135 44 323 0.0 0.0 0.00 0.00 0.00 87 1017.8
20260504080631 45 323 0.0 0.0 0.00 0.00 0.00 87 1017.6
20260504080128 45 323 0.0 0.0 0.00 0.00 0.00 87 1017.6
20260504050444 52 299 0.0 1.0 0.00 0.00 0.00 72 1018.0
20260504045941 52 301 0.0 1.0 0.00 0.00 0.00 72 1017.9
20260504045437 51 282 0.0 1.0 0.00 0.00 0.00 72 1017.7
20260504044933 51 292 0.0 1.0 0.00 0.00 0.00 74 1017.9
20260504044431 50 264 0.0 1.0 0.00 0.00 0.00 77 1017.8
20260504043928 49 235 0.0 0.0 0.00 0.00 0.00 76 1017.4
20260504043425 49 234 0.0 0.0 0.00 0.00 0.00 76 1017.6
20260504042923 49 235 0.0 0.0 0.00 0.00 0.00 75 1017.6
20260504042419 49 235 0.0 0.0 0.00 0.00 0.00 76 1017.7
20260504041916 49 235 0.0 0.0 0.00 0.00 0.00 76 1017.7
20260504041412 48 235 0.0 0.0 0.00 0.00 0.00 77 1017.7
20260504040908 48 234 0.0 0.0 0.00 0.00 0.00 77 1017.7
20260504040406 48 234 0.0 0.0 0.00 0.00 0.00 78 1017.7
20260504035901 48 234 0.0 0.0 0.00 0.00 0.00 77 1017.7
20260504035359 48 234 0.0 0.0 0.00 0.00 0.00 76 1017.7
20260504034855 49 234 0.0 0.0 0.00 0.00 0.00 76 1018.1
20260504034353 49 234 0.0 0.0 0.00 0.00 0.00 75 1018.0
20260504033850 49 234 0.0 0.0 0.00 0.00 0.00 75 1018.2
20260504033348 49 234 0.0 0.0 0.00 0.00 0.00 75 1018.0
20260504032844 49 234 0.0 0.0 0.00 0.00 0.00 75 1017.9
20260504032341 49 234 0.0 0.0 0.00 0.00 0.00 75 1018.0
20260504031838 49 234 0.0 0.0 0.00 0.00 0.00 74 1017.8
20260504031335 49 234 0.0 0.0 0.00 0.00 0.00 74 1018.1
20260504030831 49 234 0.0 0.0 0.00 0.00 0.00 73 1018.1
20260504030329 49 234 0.0 0.0 0.00 0.00 0.00 74 1018.1
20260504025825 50 234 0.0 0.0 0.00 0.00 0.00 73 1018.2
20260504025322 50 234 0.0 0.0 0.00 0.00 0.00 72 1018.0
20260504024819 50 234 0.0 0.0 0.00 0.00 0.00 71 1018.2
20260504024315 50 234 0.0 0.0 0.00 0.00 0.00 69 1017.9
20260504023812 50 234 0.0 0.0 0.00 0.00 0.00 68 1017.9
20260504023309 50 234 0.0 0.0 0.00 0.00 0.00 68 1018.1
20260504022804 51 234 0.0 0.0 0.00 0.00 0.00 71 1017.9
20260504022301 51 234 0.0 0.0 0.00 0.00 0.00 70 1017.8
20260504021758 51 234 0.0 0.0 0.00 0.00 0.00 70 1017.6
20260504021256 51 234 0.0 0.0 0.00 0.00 0.00 70 1017.7
20260504020752 51 234 0.0 0.0 0.00 0.00 0.00 69 1017.6
20260504020249 51 234 0.0 0.0 0.00 0.00 0.00 69 1017.4
20260504015745 51 234 0.0 0.0 0.00 0.00 0.00 67 1017.6
20260504015242 51 234 0.0 0.0 0.00 0.00 0.00 66 1017.5
20260504014737 52 234 0.0 0.0 0.00 0.00 0.00 65 1017.3
20260504014234 52 234 0.0 0.0 0.00 0.00 0.00 65 1017.2
20260504013732 52 234 0.0 0.0 0.00 0.00 0.00 65 1017.1
20260504013229 53 234 0.0 0.0 0.00 0.00 0.00 64 1017.1
20260504012725 53 234 0.0 0.0 0.00 0.00 0.00 62 1017.0
20260504012224 53 234 0.0 0.0 0.00 0.00 0.00 61 1017.1
20260504011720 53 234 0.0 0.0 0.00 0.00 0.00 62 1017.1
20260504011217 54 234 0.0 0.0 0.00 0.00 0.00 64 1016.9
20260504010713 54 234 0.0 0.0 0.00 0.00 0.00 63 1016.6
20260504010209 55 234 0.0 0.0 0.00 0.00 0.00 62 1016.8
20260504005705 55 234 0.0 0.0 0.00 0.00 0.00 60 1016.6
20260504005202 55 234 0.0 0.0 0.00 0.00 0.00 57 1016.9
20260504004700 55 234 0.0 0.0 0.00 0.00 0.00 55 1016.8
20260504004157 56 234 0.0 0.0 0.00 0.00 0.00 55 1016.8
20260504003653 56 234 0.0 0.0 0.00 0.00 0.00 53 1016.8
20260504003150 57 234 0.0 0.0 0.00 0.00 0.00 53 1016.6
20260504002647 58 234 0.0 0.0 0.00 0.00 0.00 53 1016.8
20260504002145 58 234 0.0 0.0 0.00 0.00 0.00 53 1016.8
20260504001642 58 234 0.0 0.0 0.00 0.00 0.00 48 1016.5
20260504001138 59 234 0.0 0.0 0.00 0.00 0.00 51 1016.4
20260504000635 59 234 0.0 0.0 0.00 0.00 0.00 47 1016.5
20260504000133 59 234 0.0 0.0 0.00 0.00 0.00 47 1016.4
20260503235631 60 234 0.0 0.0 0.00 0.00 0.00 46 1016.4
20260503235127 60 234 0.0 0.0 0.00 0.00 0.00 45 1016.2
20260503234625 61 234 0.0 0.0 0.00 0.00 0.00 44 1016.5
20260503234123 61 234 0.0 0.0 0.00 0.00 0.00 44 1016.5
20260503233620 61 234 0.0 0.0 0.00 0.00 0.00 43 1016.2
20260503233116 62 234 0.0 0.0 0.00 0.00 0.00 43 1016.4
20260503232613 62 221 0.0 0.0 0.00 0.00 0.00 42 1016.3
20260503232110 63 220 0.0 1.0 0.00 0.00 0.00 41 1016.4
20260503231608 64 226 0.0 0.0 0.00 0.00 0.00 39 1016.3
20260503231104 64 240 0.0 1.0 0.00 0.00 0.00 36 1016.3
20260503230601 65 223 0.0 1.0 0.00 0.00 0.00 36 1016.4
20260503230058 65 219 0.0 2.0 0.00 0.00 0.00 37 1016.3
20260503225555 65 236 1.0 3.0 0.00 0.00 0.00 34 1016.5
20260503225050 65 222 0.0 3.0 0.00 0.00 0.00 34 1016.4
20260503224548 65 223 1.0 3.0 0.00 0.00 0.00 33 1016.5
20260503224046 65 205 0.0 0.0 0.00 0.00 0.00 36 1016.6
20260503223544 66 282 1.0 1.0 0.00 0.00 0.00 33 1016.4
20260503223039 66 251 1.0 2.0 0.00 0.00 0.00 33 1016.8
20260503222537 65 203 1.0 3.0 0.00 0.00 0.00 32 1016.6
20260503222035 65 271 1.0 4.0 0.00 0.00 0.00 32 1016.5
20260503221533 65 244 0.0 0.0 0.00 0.00 0.00 36 1016.6
20260503221030 65 112 1.0 2.0 0.00 0.00 0.00 34 1016.9
20260503220526 66 331 0.0 1.0 0.00 0.00 0.00 34 1016.9
20260503220023 66 152 0.0 1.0 0.00 0.00 0.00 31 1016.6
20260503215520 66 218 0.0 3.0 0.00 0.00 0.00 31 1017.0
20260503215017 67 206 2.0 3.0 0.00 0.00 0.00 32 1017.1
20260503214516 67 197 2.0 4.0 0.00 0.00 0.00 31 1017.0
20260503214012 67 280 1.0 6.0 0.00 0.00 0.00 30 1017.1
20260503213510 67 177 1.0 4.0 0.00 0.00 0.00 30 1017.2
20260503213007 67 290 1.0 4.0 0.00 0.00 0.00 30 1017.3
20260503212504 67 127 2.0 6.0 0.00 0.00 0.00 31 1017.3
20260503212001 67 213 1.0 4.0 0.00 0.00 0.00 31 1017.4
20260503211458 67 251 2.0 2.0 0.00 0.00 0.00 33 1017.6
20260503210954 68 222 1.0 2.0 0.00 0.00 0.00 32 1017.5
20260503210451 67 237 0.0 1.0 0.00 0.00 0.00 31 1017.5
20260503205951 66 275 0.0 2.0 0.00 0.00 0.00 31 1017.4
20260503205449 66 98 0.0 1.0 0.00 0.00 0.00 34 1017.4
20260503204944 67 236 0.0 3.0 0.00 0.00 0.00 30 1017.4
20260503204442 67 96 0.0 2.0 0.00 0.00 0.00 32 1017.7
20260503203939 66 243 0.0 2.0 0.00 0.00 0.00 32 1017.6
20260503203437 66 196 2.0 4.0 0.00 0.00 0.00 31 1017.7
20260503202933 66 83 0.0 2.0 0.00 0.00 0.00 32 1017.9
20260503202431 66 175 0.0 1.0 0.00 0.00 0.00 32 1018.1
20260503201930 66 202 1.0 6.0 0.00 0.00 0.00 30 1017.7
20260503201426 67 245 1.0 3.0 0.00 0.00 0.00 32 1018.0
20260503200924 65 220 5.0 6.0 0.00 0.00 0.00 32 1018.1
20260503200420 66 194 1.0 2.0 0.00 0.00 0.00 30 1018.1
20260503195917 65 51 0.0 1.0 0.00 0.00 0.00 31 1018.0
20260503195414 66 111 0.0 1.0 0.00 0.00 0.00 32 1018.3
20260503194911 66 231 1.0 3.0 0.00 0.00 0.00 32 1018.4